Preview of NWS' New Version of Forecast
This preview is not operational and should not be used for support decisions.
Latest weather observations around

Seattle, Seattle Boeing Field (KBFI)

Using English Units (Switch to International System of Units)
Date/ Time (PDT) Wind (mph) Vis. (mi) Weather Sky Cond. Temp (°F) Rel. Humidity Wind Chill (°F) Heat Index (°F) Pressure Precip. (in)
Air Dwpt 6 hour Altimeter (inHg) Sea level (inHg) 1 hr 3 hr 6 hr
Max Min
May 25 02:53 Calm 10 Partly Cloudy SCT033 54 46     74%     30.04 30.03      
May 25 01:53 Calm 10 Partly Cloudy SCT150 56 47     72%     30.04 30.03      
May 25 00:53 3 10 Clear CLR 57 48     72%     30.04 30.03      
May 24 23:53 NW 7 10 Mostly Clear FEW150 58 48     70%     30.04 30.03      
May 24 22:53 NNW 7 10 Mostly Clear FEW150 60 50     69%     30.03 30.03      
May 24 21:53 NW 5 10 Mostly Clear FEW050 60 50     69%     30.02 30.02      
May 24 20:53 NW 6 10 Mostly Clear FEW050 63 51     65%     30.01 30.01      
May 24 19:53 NW 6 10 Clear CLR 67 52     59%     30.01 30.01      
May 24 18:53 NW 11 10 Partly Cloudy SCT250 69 51     53%     30.01 30.01      
May 24 17:53 5 10 Partly Cloudy SCT250 69 51     53%     30.02 30.02      
May 24 16:53 5 10 Partly Cloudy FEW040 SCT250 70 51     51%     30.04 30.03      
May 24 15:53 Calm 10 Partly Cloudy SCT035 68 50     53%     30.05 30.05      
May 24 14:53 6 10 Partly Cloudy SCT026 68 51     55%     30.06 30.06      
May 24 13:53   10 Mostly Cloudy BKN026 64 51     63%     30.07 30.07      
May 24 12:53 SSW 8 10 Cloudy OVC025 62 51     67%     30.08 30.08      
May 24 11:53 WSW 6 10 Cloudy OVC022 60 51     72%     30.08 30.08      
May 24 10:53 WSW 8 10 Cloudy FEW014 OVC021 58 51     78%     30.08 30.07     0
May 24 09:53 SSW 8 10 Cloudy FEW013 OVC023 57 51     81%     30.07 30.07 0    
May 24 08:53 6 6 Light Drizzle and Fog/Mist FEW006 BKN018 OVC030 56 52     87%     30.06 30.06 0    
May 24 08:18 SSW 6 3 Light Drizzle and Fog/Mist SCT006 BKN016 OVC022 55 52     89%     30.05   0    
May 24 07:53 SSW 8 3 Fog/Mist BKN014 OVC022 55 52     89%     30.05 30.04   0  
May 24 06:53 S 8 10 Cloudy SCT015 OVC024 56 51     84%     30.03 30.03 0    
May 24 06:44 S 6 10 Cloudy SCT015 OVC024 56 51     84%     30.03   0    
May 24 05:53 S 6 6 Light Drizzle and Fog/Mist BKN013 OVC016 56 52     87%     30.02 30.01 0    
May 24 04:53 SSW 7 10 Cloudy SCT012 BKN016 OVC020 56 52     87%     30.01 30      
May 24 03:53 WSW 6 10 Cloudy OVC015 57 54     89%     29.99 29.99      
May 24 02:53 SSW 8 10 Cloudy OVC017 58 54     87%     29.98 29.97      
May 24 01:53 SSW 6 10 Mostly Cloudy FEW015 BKN020 BKN100 57 52     83%     29.96 29.96      
May 23 23:53 SSE 6 10 Mostly Cloudy BKN100 58 52     81%     29.93 29.92      
May 23 22:53 S 7 10 Mostly Cloudy BKN100 61        %     29.9 29.9      
May 23 21:53 7 10 Mostly Cloudy BKN095 64 52     65%     29.87 29.86      
May 23 20:53 W 5 10 Partly Cloudy SCT110 68 51     55%     29.82 29.82      
May 23 19:53 NW 5 10 Partly Cloudy SCT110 74 50     43%   73 29.78 29.78      
May 23 18:53 NW 5 10 Mostly Cloudy BKN110 77 48     36%   76 29.77 29.77      
May 23 17:53 5 10 Partly Cloudy SCT030 79 51     38%   78 29.77 29.77      
May 23 16:53 Calm 10 Clear CLR 79 50     36%   78 29.77 29.77      
May 23 15:53 7 10 Clear CLR 79 47     32%   78 29.77 29.76      
May 23 14:53 6 10 Clear CLR 79 48     34%   78 29.77 29.77      
May 23 13:53 7 10 Clear CLR 77 49     37%   76 29.78 29.78      
May 23 12:53 NW 5 10 Clear CLR 74 49     41%   73 29.79 29.79      
May 23 11:53 NW 6 10 Clear CLR 71 49     45%   70 29.8 29.8      
May 23 10:53 NNW 8 10 Partly Cloudy FEW050 SCT110 69 50     51%     29.81 29.81      
May 23 09:53 NNW 5 10 Mostly Clear FEW050 66 50     56%     29.82 29.82      
May 23 08:53 5 10 Clear CLR 63 50     63%     29.82 29.82      
May 23 07:53 NW 6 10 Mostly Clear FEW020 61 49     64%     29.82 29.82      
May 23 06:53 N 3 10 Clear CLR 60 48     64%     29.82 29.82      
May 23 05:53 Calm 10 Mostly Clear FEW130 56 50     80%     29.82 29.81      
May 23 04:53 Calm 10 Clear CLR 57 50     77%     29.82 29.82      
May 23 03:53 NW 3 10 Clear CLR 58 49     72%     29.81 29.81      
May 23 02:53 Calm 10 Clear CLR 60 49     67%     29.81 29.81      
May 23 01:53 NNW 3 10 Clear CLR 61 50     67%     29.82 29.81      
May 23 00:53 Calm 10 Clear CLR 61 48     62%     29.82 29.82      
May 22 23:53 NNW 5 10 Clear CLR 63 49     60%     29.83 29.83      
May 22 22:53 Calm 10 Clear CLR 65 49     56%     29.83 29.83      
May 22 21:53 Calm 10 Clear CLR 66 49     54%     29.83 29.83      
May 22 20:53 5 10 Clear CLR 67 50     55%     29.81 29.81      
May 22 19:53 NNW 8 10 Clear CLR 71 50     47%   70 29.81 29.81      
May 22 18:53 NW 8 10 Clear CLR 74 49     41%   73 29.81 29.81      
May 22 17:53 7 10 Clear CLR 75 49     40%   74 29.83 29.83      
May 22 16:53 NW 9 10 Clear CLR 75 50     41%   74 29.84 29.83      
May 22 15:53 NNW 10 10 Clear CLR 75 50     41%   74 29.85 29.85      
May 22 14:53 NW 13 10 Clear CLR 73 50     44%   72 29.87 29.87      
May 22 13:53 NNW 8 10 Clear CLR 72 49     44%   71 29.89 29.89      
May 22 12:53 NW 8 10 Clear CLR 70 50     49%     29.91 29.91      
May 22 11:53 NNW 6 10 Clear CLR 68 51     55%     29.93 29.93      
May 22 10:53 3 10 Clear CLR 65 50     58%     29.94 29.94      
May 22 09:53 5 10 Clear CLR 63 50     63%     29.96 29.95      
May 22 08:53 Calm 10 Clear CLR 62 50     65%     29.97 29.97      
May 22 07:53 3 10 Clear CLR 59 49     69%     29.98 29.98      
May 22 06:53 Calm 10 Clear CLR 56 49     77%     29.98 29.98      
May 22 05:53 Calm 10 Clear CLR 53 48     83%     29.98 29.98      
May 22 04:53 Calm 10 Clear CLR 54 48     80%     29.98 29.98      
May 22 03:53 Calm 10 Clear CLR 54 48     80%     29.98 29.98      
May 22 02:53 Calm 10 Clear CLR 55 48     77%     29.99 29.99      
May 22 01:53 Calm 10 Clear CLR 56 48     75%     30 29.99      
May 22 00:53 NW 3 10 Clear CLR 56 49     77%     30 29.99      
May 21 23:53 NW 5 10 Clear CLR 58 48     70%     29.99 29.99      
May 21 22:53 NW 6 10 Clear CLR 59 48     67%     30 29.99      
May 21 21:53 NNW 3 10 Clear CLR 62 46     56%     30 29.99      
May 21 19:53 NW 7 10 Clear CLR 66 45     47%     29.99 29.99      
May 21 17:53 7 10 Clear   69 46     44%     30.01 30      
May 21 12:53 5 10 Partly Cloudy SCT031 65 49     56%     30.06 30.06      
May 20 22:53 3 10 Clear CLR 56 47     72%     30.06 30.06      
May 20 18:53 NW 6 10 Mostly Cloudy BKN046 63 50     63%     30.03 30.03      
May 20 11:53 3 10 Cloudy OVC038 59 49     69%     30.06 30.06      
May 20 09:53 SSW 6 10 Cloudy OVC030 56 49     77%     30.06 30.05      
May 19 19:53 5 6 Light Rain SCT038 BKN070 OVC090 61 55     81%     29.94 29.94 0 0  
May 19 18:53 NW 6 10 Cloudy OVC046 65 52     63%     29.94 29.93      
May 18 10:53 S 3 10 Cloudy BKN017 OVC025 58 50     75%     30.06 30.06      
May 18 03:53 SW 5 10 Cloudy OVC014 54 49     83%     30.04 30.04      
May 18 02:53 Calm 10 Mostly Cloudy BKN014 BKN040 53 49     86%     30.04 30.04      
May 17 19:53 SW 6 10 Mostly Cloudy BKN037 64 50     60%     30.03 30.03      
May 17 10:53 6 10 Cloudy OVC025 58 47     67%     30.09 30.09      
May 17 01:53 SSE 7 10 Cloudy OVC015 55 49     80%     30.08 30.08      
May 16 15:53   10 Mostly Clear FEW037 67 51     57%     30.03 30.02      
May 16 11:53 3 10 Mostly Cloudy BKN027 63 50     63%     30.04 30.03      
May 15 05:53 SSW 6 10 Cloudy OVC008 55 51     86%     29.92 29.92      
May 14 14:53 NNW 8 10 Clear CLR 83 51     33%   81 29.88 29.88      
May 13 17:53 NW 7 10 Clear CLR 81 47     30%   80 29.87 29.87      
May 13 11:53 Calm 10 Clear CLR 71 54     55%   70 29.95 29.94      
May 13 10:53 6 10 Clear CLR 69 53     57%     29.95 29.95      
May 13 08:53 ENE 3 10 Clear CLR 64 51     63%     29.98 29.97      
May 12 01:53 SE 6 10 Clear CLR 53 47     80%     30.19 30.19      
May 12 00:53 Calm 10 Clear CLR 57 46     67%     30.19 30.19      
May 11 17:53 3 10 Partly Cloudy SCT046 67 46     47%     30.2 30.2      
Jun 12 03:53 SSE 8 10 Mostly Cloudy BKN060 53 51     93%     30 30      
Jun 12 02:53 SSE 7 10 Mostly Cloudy BKN055 54 51     90%     30 29.99      
Jun 11 22:53 Calm 10 Clear CLR 61 49     64%     29.99 29.99      
Jun 11 14:53 NW 8 10 Clear   69 48     47%     30 29.99      
Jun 11 01:53 Calm 10 Mostly Cloudy BKN085 57 47     69%     29.97 29.97      
Jun 10 23:53 Calm 10 Cloudy OVC075 59 47     64%     29.95 29.95      
Jun 10 15:53 NNW 7 10 Clear   65 44     47%     29.85 29.85      
Jun 08 08:44 SSE 8 10 Light Rain SCT007 BKN038 OVC095 57 57     100%     29.66   0    
Jun 07 14:53 6 10 Cloudy SCT140 OVC250 79 54     42%   79 29.69 29.69      
Jun 06 00:53 3 10 Clear CLR 60 46     60%     30.04 30.04      
Jun 05 20:53 NW 6 10 Clear CLR 65 46     50%     30.05 30.05      
Jun 05 19:53 NW 6 10 Mostly Cloudy BKN200 67 47     49%     30.05 30.05      
Jun 05 15:53 WNW 9 10 Mostly Cloudy BKN250 71 45     39%   70 30.08 30.07